Temperature
10 9 7 8 8 9 9 9 9 9 8 8 7 8 7 7 7 6 6 5 5 4 4 3 3 3 3 4 4 4 5 5 5 5 5 5 6 6 6 6 6 6 6 6
9 7 7 8 8 8 8 8 9 8 8 7 7 6 7 6 6 6 5 4 4 4 3 3 3 3 3 3 4 4 4 4 5 5 5 5 5 5 5 5 5 6 6 6
8 7 7 8 8 8 8 7 7 7 6 7 6 6 7 7 6 5 5 4 4 4 3 3 3 3 3 3 3 3 3 4 4 4 4 4 4 4 4 5 5 5 5 5
7 7 7 7 7 7 7 7 6 6 5 5 6 5 6 6 5 5 4 4 4 3 3 2 2 2 2 2 3 3 3 3 3 4 4 4 4 4 4 4 4 4 4 5
6 6 6 6 6 6 6 6 5 5 5 5 5 5 5 6 5 4 4 4 3 3 3 2 2 2 2 2 2 2 3 3 3 3 3 3 3 3 3 3 4 4 4 4
5 5 5 5 5 5 5 5 5 5 4 4 5 5 5 5 5 4 4 3 3 3 2 2 2 2 2 2 2 2 2 2 2 2 3 3 3 3 3 3 3 3 3 3
5 5 4 4 4 4 4 4 4 5 5 5 6 5 4 4 4 3 3 3 2 2 2 2 1 1 1 1 2 2 2 2 2 2 2 2 2 2 2 2 2 2 2 3
6 5 4 3 3 3 4 4 4 5 5 5 5 4 4 3 3 3 3 3 2 1 1 1 1 1 0 1 1 1 1 1 1 1 1 1 1 1 1 2 2 2 2 2
5 5 3 3 3 3 4 3 4 3 3 3 4 4 3 3 2 2 2 2 1 1 1 0 0 0 0 0 0 0 0 0 1 1 1 1 1 1 1 1 1 1 1 1
4 3 3 2 2 2 2 3 2 3 3 4 5 5 4 2 1 1 1 1 1 0 -0 -0 -0 -0 -0 -1 -1 -1 -1 -1 -0 -0 0 0 0 0 0 0 0 1 1 1
4 2 2 1 1 2 1 2 2 2 3 3 3 4 3 2 1 1 0 1 0 -0 -1 -1 -1 -1 -1 -1 -1 -1 -1 -1 -1 -1 -1 -0 -0 -0 0 0 0 0 0 0
2 2 2 2 1 1 1 1 1 1 2 2 2 2 2 1 1 1 0 0 -0 -1 -1 -1 -1 -1 -2 -2 -2 -2 -2 -2 -2 -2 -1 -1 -1 -1 -1 -0 -0 -0 -0 -0
1 1 2 2 1 -0 -0 0 0 0 0 1 1 2 1 0 0 1 0 -0 -0 -1 -1 -2 -2 -2 -2 -2 -2 -3 -2 -2 -2 -2 -2 -2 -2 -1 -1 -1 -1 -1 -1 -1
1 0 1 2 2 0 -1 -1 -1 -1 -1 -0 1 1 1 0 -0 -0 0 -0 -1 -1 -2 -2 -2 -2 -3 -3 -3 -3 -3 -3 -3 -3 -3 -2 -2 -2 -2 -2 -2 -2 -2 -2
-0 -0 0 0 1 1 0 -0 -1 -2 -1 -1 0 0 0 -0 -1 -0 -0 -1 -1 -2 -2 -3 -3 -3 -3 -3 -4 -4 -4 -4 -4 -4 -3 -3 -3 -3 -3 -3 -3 -3 -2 -2
-1 -1 -1 -1 -0 0 -0 -0 -1 -2 -2 -1 -1 -1 -1 -0 0 -1 -1 -1 -2 -2 -3 -3 -3 -4 -4 -4 -4 -4 -4 -4 -4 -4 -4 -4 -4 -4 -4 -3 -3 -3 -3 -3
-2 -2 -1 -0 0 -0 -1 -1 -1 -1 -2 -2 -2 -1 -1 -1 -1 -1 -2 -2 -2 -3 -3 -3 -4 -4 -4 -4 -5 -5 -5 -5 -5 -5 -5 -5 -5 -4 -4 -4 -4 -4 -4 -4
-2 -2 -2 -1 -1 -1 0 -1 -1 -1 -2 -2 -2 -2 -2 -2 -1 -1 -2 -2 -2 -3 -3 -4 -4 -4 -5 -5 -5 -5 -5 -5 -6 -6 -6 -6 -5 -5 -5 -5 -5 -4 -4 -4
-2 -2 -2 -2 -1 -0 -0 -1 -2 -2 -2 -2 -3 -3 -2 -2 -2 -2 -2 -3 -3 -4 -4 -4 -5 -5 -5 -5 -6 -6 -6 -6 -6 -6 -6 -6 -6 -6 -6 -6 -5 -5 -5 -5
-3 -3 -3 -2 -2 -1 -0 -2 -2 -2 -3 -2 -3 -3 -3 -3 -4 -3 -3 -3 -4 -4 -5 -5 -5 -5 -6 -6 -6 -6 -6 -6 -7 -7 -7 -7 -7 -7 -7 -6 -6 -6 -6 -6
-4 -4 -4 -3 -2 -2 -2 -3 -3 -2 -2 -2 -2 -3 -3 -4 -4 -4 -4 -4 -5 -5 -5 -5 -6 -6 -6 -6 -6 -7 -7 -7 -7 -7 -7 -7 -7 -7 -7 -7 -7 -7 -7 -7
-4 -4 -4 -3 -3 -2 -4 -4 -4 -3 -2 -3 -3 -3 -4 -4 -4 -4 -5 -5 -5 -6 -6 -6 -6 -6 -6 -7 -7 -7 -7 -7 -8 -8 -8 -8 -8 -8 -8 -8 -7 -7 -7 -7
-4 -4 -4 -4 -3 -2 -3 -3 -3 -3 -3 -3 -4 -4 -4 -5 -5 -5 -6 -6 -6 -6 -6 -6 -7 -7 -7 -7 -8 -8 -8 -8 -8 -8 -8 -8 -8 -8 -8 -8 -8 -8 -8 -8
-4 -4 -4 -4 -4 -3 -3 -3 -3 -3 -4 -4 -4 -4 -5 -5 -6 -6 -6 -7 -7 -7 -7 -7 -7 -7 -7 -8 -8 -8 -8 -9 -9 -9 -9 -9 -9 -9 -9 -9 -9 -9 -9 -9
-4 -6 -5 -5 -5 -4 -4 -3 -3 -4 -4 -4 -5 -5 -5 -6 -6 -7 -7 -7 -7 -7 -7 -8 -8 -8 -8 -8 -8 -8 -9 -9 -9 -9 -9 -9 -9 -9 -9 -9 -9 -9 -9 -9
-5 -6 -6 -5 -4 -5 -4 -4 -4 -4 -5 -5 -5 -6 -6 -6 -7 -7 -7 -7 -8 -8 -8 -8 -8 -8 -8 -8 -9 -9 -9 -9 -10 -10 -10 -10 -10 -10 -10 -10 -9 -9 -9 -9
Wind_Speed
2 0 1 2 3 4 5 6 7 4 1 3 8 9 5 3 3 3 2 1 1 1 1 1 1 1 1 1 1 2 2 2 1 0 0 1 1 1 1 1 1 2 2 1
1 2 2 2 3 5 6 8 7 3 2 3 7 9 6 3 4 2 1 1 1 1 1 1 1 1 0 0 1 1 2 2 1 1 1 1 1 2 2 1 2 2 2 1
2 0 1 3 3 5 6 5 5 4 5 5 6 6 5 2 3 2 1 1 1 2 1 1 0 0 0 1 2 2 2 2 1 1 1 1 1 1 1 1 1 2 2 2
1 0 1 2 2 3 5 2 4 5 4 4 2 5 4 4 3 2 2 1 0 1 1 0 0 1 1 1 1 2 2 2 1 1 1 0 0 2 2 2 2 3 3 3
0 1 2 2 2 3 2 3 4 5 5 5 5 5 5 3 3 3 1 1 1 1 1 1 1 1 1 1 1 1 1 1 1 0 0 1 1 2 2 2 3 3 3 3
1 1 2 2 2 2 2 3 3 3 2 5 7 6 4 2 2 1 2 1 1 1 1 1 1 1 1 1 1 1 1 1 1 1 1 1 2 3 3 3 3 3 2 3
2 3 2 1 1 1 2 1 2 2 3 5 3 4 5 1 3 2 2 1 2 2 2 2 1 1 1 1 1 1 1 2 2 2 2 3 3 3 3 4 4 3 3 3
3 3 3 1 0 1 3 1 2 3 4 3 2 5 3 3 4 4 3 2 3 3 3 2 2 1 2 2 1 1 2 2 2 2 3 3 3 3 3 4 4 4 4 4
3 3 1 1 1 2 1 2 1 1 3 4 5 3 1 2 2 2 2 2 2 3 3 3 3 2 2 2 2 2 2 3 3 3 3 4 4 4 4 4 4 4 4 5
2 3 1 1 1 2 2 1 1 2 2 5 5 4 2 2 2 0 1 2 2 2 3 3 3 3 3 3 3 3 3 3 3 3 3 4 4 4 4 4 5 5 5 5
2 2 2 2 4 4 3 2 3 3 3 3 5 3 0 2 2 1 1 2 2 3 3 3 3 3 3 3 3 4 4 4 4 4 4 4 4 4 4 4 5 5 5 6
1 1 4 3 1 2 1 3 4 3 4 4 4 5 1 2 2 2 1 2 2 2 2 3 3 3 4 4 4 4 5 5 5 5 4 4 5 4 5 5 6 6 6 6
1 1 2 2 0 1 2 2 2 1 1 4 5 5 0 2 2 1 0 2 2 2 3 2 3 3 4 4 4 5 5 5 5 5 5 5 5 5 5 6 6 6 6 6
1 3 6 7 4 2 4 5 4 4 4 6 8 8 5 4 3 3 3 2 2 2 2 3 3 3 4 4 5 5 6 6 6 6 6 6 6 6 6 6 7 6 6 5
1 4 6 8 7 5 8 8 8 9 8 8 8 8 9 6 5 4 3 2 2 3 3 3 4 4 5 5 5 6 6 6 6 6 7 7 7 7 6 7 7 6 6 6
2 4 4 6 7 7 9 10 10 11 9 11 12 12 9 6 4 3 3 2 2 3 3 3 4 4 5 5 6 6 7 7 6 7 7 7 7 7 7 7 6 5 5 5
3 3 3 6 4 5 9 8 10 7 7 7 11 10 5 4 4 4 3 3 3 3 3 4 4 5 5 5 6 6 6 7 7 7 7 7 7 7 8 7 5 5 5 5
3 3 3 4 3 8 6 2 5 7 7 8 7 6 5 6 6 3 2 2 2 3 4 4 4 4 5 5 5 6 6 6 7 7 8 8 7 7 7 6 6 6 5 6
2 3 3 3 5 8 4 2 3 5 7 6 8 7 6 5 3 3 2 1 2 2 3 3 3 4 4 5 5 5 6 6 7 7 8 8 7 8 7 7 6 6 6 6
1 2 3 4 4 6 4 1 0 2 5 3 4 5 4 2 3 4 1 2 3 3 2 3 3 4 4 5 5 5 6 7 7 8 8 8 8 7 7 7 7 6 6 6
2 3 5 7 7 6 2 1 2 2 5 3 1 3 3 4 5 3 3 3 2 3 3 3 3 4 4 4 4 5 6 7 8 8 8 8 8 7 7 7 6 5 6 6
6 5 5 4 6 7 2 3 4 5 3 3 3 3 3 4 4 3 3 3 3 3 3 3 3 4 4 4 4 6 6 7 7 7 8 8 8 7 7 6 6 6 6 6
6 6 4 6 7 2 4 4 3 2 3 4 4 4 4 4 5 4 3 3 3 3 3 3 4 5 5 4 4 5 7 7 7 7 8 8 8 7 7 6 7 6 5 5
4 2 3 5 7 5 4 4 3 4 4 4 4 4 4 5 5 5 4 4 4 3 3 3 4 5 5 5 5 5 6 6 7 7 7 7 7 7 7 6 6 5 5 5
4 3 4 6 6 5 4 4 5 4 4 4 4 3 3 4 4 4 4 4 4 4 4 3 4 5 6 6 6 6 6 6 6 7 7 7 7 7 6 6 5 6 5 5
3 4 4 6 5 4 5 4 4 5 5 5 4 4 3 2 3 3 3 3 3 4 4 4 5 5 6 6 6 6 6 5 6 7 7 6 6 6 6 6 7 8 8 10
Wind_Direction
163 153 218 238 249 283 304 286 281 281 173 240 249 265 253 227 229 235 217 199 204 214 181 102 83 68 57 26 9 334 327 330 348 347 328 280 272 304 313 295 280 288 295 310
173 232 277 310 282 273 277 280 284 312 39 290 278 269 254 211 204 201 192 212 209 224 122 98 60 62 44 346 328 306 316 316 309 303 269 248 257 270 271 293 307 281 287 287
203 350 319 287 298 286 262 264 282 297 312 262 286 276 223 191 169 159 179 177 188 196 184 170 230 290 301 294 277 269 283 302 309 334 358 347 340 304 292 283 293 288 276 274
215 159 288 273 276 286 273 329 294 291 301 274 228 283 234 202 188 186 191 186 200 183 153 154 267 279 285 281 281 257 278 294 319 10 43 77 268 269 275 274 267 285 281 272
185 43 300 273 311 299 296 332 293 272 259 276 237 246 268 188 218 218 171 122 61 102 151 201 249 264 308 328 317 270 282 290 327 6 199 233 264 277 292 292 272 263 271 262
201 70 356 339 322 291 309 301 273 257 240 257 223 214 274 207 206 163 174 163 93 62 67 21 13 26 347 343 344 329 295 290 264 255 246 242 258 279 290 294 283 274 274 264
223 168 127 7 306 233 305 348 340 297 235 243 178 211 247 160 82 121 158 139 67 41 23 11 5 349 331 337 350 334 297 281 276 267 259 253 255 259 260 271 275 279 278 275
271 248 160 151 227 242 252 228 189 247 267 288 241 229 230 115 81 61 82 89 48 24 7 356 348 349 346 342 343 329 293 288 280 274 279 275 264 259 263 265 266 264 266 266
283 265 99 94 360 310 247 230 277 263 281 272 247 222 169 106 65 56 64 58 29 8 3 351 353 350 342 338 338 329 309 301 294 288 285 280 274 273 272 272 271 270 266 270
307 276 219 135 224 270 293 306 155 194 257 272 270 234 222 202 224 181 29 11 357 5 357 351 347 348 354 350 345 345 337 315 299 296 288 286 286 280 273 269 265 265 263 264
302 238 243 201 207 204 183 206 224 236 237 241 275 268 357 150 165 172 335 7 1 358 348 343 350 358 356 350 344 336 331 331 323 311 306 301 296 293 286 277 270 267 264 260
297 250 256 240 85 35 209 214 186 197 245 232 261 269 5 73 90 96 24 352 343 345 341 343 349 354 350 344 342 337 331 326 321 317 306 302 298 294 289 285 282 277 270 263
237 203 285 279 325 353 260 244 238 233 269 237 239 257 67 70 49 26 314 305 317 336 339 344 348 344 338 337 339 338 333 328 326 325 315 309 303 298 293 289 288 282 274 270
284 226 221 241 266 201 235 233 213 200 221 246 241 258 278 299 313 321 322 316 312 324 331 337 336 330 331 335 336 335 332 332 330 327 318 309 305 300 297 293 290 283 276 269
222 249 249 263 273 264 251 241 211 214 223 234 262 268 277 288 294 304 309 315 325 322 327 330 327 326 330 333 333 333 331 332 329 324 317 310 309 305 301 297 291 283 276 271
230 257 274 268 256 253 262 248 225 227 237 248 268 275 277 289 303 311 311 316 310 310 318 323 325 326 327 327 327 328 327 328 328 321 314 313 314 313 309 303 296 288 282 276
218 237 260 265 263 292 264 238 216 217 216 217 242 256 292 311 307 295 299 303 296 311 320 319 319 319 320 320 321 318 319 323 322 317 313 312 312 312 309 306 302 295 289 286
212 222 243 269 298 257 251 241 197 212 237 227 240 268 284 278 287 286 291 285 308 323 322 320 318 320 319 319 320 320 320 318 316 315 314 314 315 314 315 322 317 304 294 287
224 209 249 252 260 268 262 229 193 213 259 234 235 260 285 304 309 298 346 12 336 325 317 311 309 306 310 313 318 321 318 317 316 314 315 316 316 314 314 316 312 309 306 300
310 240 232 238 254 264 261 239 46 138 268 256 219 250 280 339 289 276 348 10 352 344 330 319 320 317 312 314 321 317 313 317 315 314 314 314 313 310 308 308 308 308 305 300
188 219 227 239 249 264 261 159 112 187 263 315 287 264 246 233 245 281 326 340 337 329 322 323 320 313 309 315 322 315 314 313 312 315 315 314 313 310 307 306 307 308 305 305
189 196 213 216 236 257 183 139 192 238 302 317 310 298 276 276 292 306 314 316 318 321 322 322 318 312 314 320 320 313 309 311 316 316 314 314 314 312 312 313 312 310 308 304
204 205 206 207 225 248 173 207 244 300 297 300 304 302 292 285 289 300 301 299 300 306 316 321 314 310 313 318 315 306 306 314 315 314 312 312 314 313 312 311 310 308 305 300
235 229 235 258 267 262 249 263 282 286 281 296 299 294 288 277 282 289 292 299 305 309 311 315 313 310 310 314 314 304 308 313 313 311 311 311 312 312 313 309 307 305 304 302
251 203 243 258 279 299 279 263 274 286 295 298 298 288 277 273 279 282 289 294 299 306 308 304 299 299 303 311 311 311 313 315 313 310 310 311 310 308 309 308 304 303 295 300
223 203 220 252 264 251 280 295 297 290 288 285 288 292 292 271 268 278 283 286 292 297 300 302 300 304 307 310 310 311 312 312 310 311 312 309 309 307 306 305 305 305 302 306
Height
1504 1507 1510 1509 1509 1507 1506 1506 1504 1502 1502 1504 1503 1500 1499 1499 1500 1500 1501 1501 1502 1503 1503 1503 1503 1502 1502 1502 1501 1502 1502 1502 1502 1502 1503 1504 1504 1506 1507 1508 1509 1510 1511 1511
1505 1509 1509 1508 1508 1508 1507 1507 1504 1503 1503 1504 1502 1499 1496 1496 1497 1498 1498 1499 1499 1500 1500 1500 1500 1500 1499 1499 1499 1499 1499 1499 1499 1500 1500 1501 1502 1502 1503 1504 1505 1506 1507 1507
1506 1510 1509 1508 1508 1507 1506 1508 1507 1508 1507 1504 1505 1499 1494 1492 1494 1496 1496 1496 1497 1498 1497 1497 1497 1497 1496 1496 1496 1496 1496 1496 1497 1497 1497 1498 1498 1499 1500 1501 1501 1502 1503 1503
1507 1508 1508 1508 1508 1508 1507 1507 1507 1508 1512 1509 1505 1506 1493 1491 1492 1493 1494 1495 1495 1495 1495 1495 1495 1494 1494 1494 1494 1494 1494 1494 1494 1494 1494 1494 1495 1495 1496 1497 1497 1498 1499 1499
1508 1509 1509 1509 1509 1509 1509 1508 1508 1508 1509 1510 1504 1507 1495 1490 1492 1492 1492 1493 1494 1494 1494 1494 1493 1493 1493 1492 1492 1491 1491 1491 1491 1491 1492 1492 1492 1492 1493 1493 1494 1494 1494 1495
1510 1510 1510 1510 1510 1509 1509 1508 1507 1508 1510 1511 1499 1503 1495 1493 1490 1490 1491 1491 1492 1493 1493 1492 1492 1492 1491 1491 1490 1489 1489 1488 1488 1488 1488 1488 1489 1489 1489 1489 1490 1490 1490 1491
1508 1510 1510 1511 1511 1510 1511 1513 1512 1510 1508 1501 1494 1498 1497 1490 1489 1489 1490 1491 1491 1491 1491 1491 1490 1489 1489 1488 1487 1487 1486 1486 1486 1485 1485 1486 1485 1485 1485 1485 1485 1485 1486 1486
1508 1508 1511 1511 1512 1513 1511 1511 1514 1514 1505 1498 1497 1498 1493 1489 1489 1489 1490 1491 1491 1491 1490 1490 1489 1487 1487 1486 1486 1485 1484 1483 1483 1483 1483 1483 1482 1482 1482 1481 1481 1481 1481 1481
1508 1509 1511 1511 1512 1513 1511 1512 1511 1514 1511 1511 1497 1491 1491 1489 1489 1489 1489 1489 1490 1490 1489 1489 1488 1487 1485 1485 1484 1483 1481 1481 1480 1480 1480 1479 1479 1478 1478 1478 1478 1477 1477 1477
1509 1513 1511 1512 1513 1513 1513 1512 1515 1515 1513 1505 1491 1486 1490 1491 1490 1490 1489 1489 1489 1489 1489 1488 1487 1486 1485 1484 1482 1481 1480 1479 1478 1477 1476 1475 1475 1474 1474 1474 1473 1473 1472 1473
1510 1514 1514 1514 1514 1512 1515 1515 1513 1511 1508 1508 1502 1495 1488 1487 1487 1488 1489 1488 1488 1488 1488 1487 1486 1485 1484 1482 1481 1479 1478 1476 1475 1474 1472 1471 1470 1470 1469 1469 1468 1468 1468 1467
1512 1513 1513 1510 1511 1511 1511 1511 1513 1516 1512 1508 1507 1500 1488 1486 1486 1487 1488 1488 1488 1487 1487 1486 1485 1483 1482 1481 1479 1478 1476 1474 1472 1471 1469 1467 1466 1465 1464 1464 1463 1463 1462 1462
1514 1515 1513 1508 1514 1515 1514 1511 1512 1513 1513 1509 1506 1497 1489 1487 1487 1487 1487 1487 1486 1486 1485 1484 1483 1481 1480 1479 1477 1475 1473 1471 1469 1468 1465 1463 1462 1460 1459 1458 1457 1456 1456 1455
1512 1513 1513 1507 1503 1509 1512 1511 1512 1514 1515 1508 1499 1492 1489 1487 1487 1486 1486 1485 1485 1484 1483 1482 1481 1480 1478 1477 1475 1473 1471 1469 1467 1464 1462 1460 1458 1456 1454 1453 1451 1451 1450 1449
1512 1512 1509 1506 1503 1503 1504 1504 1508 1510 1505 1505 1494 1491 1486 1485 1485 1485 1484 1483 1483 1482 1481 1480 1479 1478 1477 1475 1472 1470 1468 1465 1463 1461 1458 1455 1454 1452 1449 1447 1445 1444 1443 1443
1511 1511 1509 1506 1501 1500 1499 1497 1500 1502 1501 1499 1495 1491 1483 1483 1483 1483 1482 1481 1481 1480 1479 1479 1478 1476 1474 1472 1470 1467 1465 1462 1460 1457 1454 1452 1449 1447 1444 1441 1439 1438 1437 1437
1510 1511 1509 1503 1498 1499 1496 1490 1492 1493 1491 1493 1492 1486 1482 1482 1481 1480 1480 1479 1478 1478 1477 1476 1475 1473 1471 1470 1467 1464 1461 1459 1457 1454 1451 1448 1445 1442 1439 1436 1434 1433 1432 1432
1509 1509 1508 1504 1502 1501 1486 1483 1483 1486 1486 1485 1483 1481 1481 1480 1479 1478 1478 1477 1476 1476 1475 1474 1472 1471 1469 1466 1464 1461 1458 1456 1453 1450 1447 1445 1442 1438 1435 1432 1430 1429 1428 1427
1505 1507 1506 1505 1501 1490 1484 1483 1483 1485 1483 1480 1480 1479 1478 1477 1477 1475 1475 1475 1474 1474 1472 1471 1469 1468 1465 1463 1461 1458 1455 1453 1450 1447 1444 1441 1438 1435 1432 1428 1426 1424 1423 1422
1506 1506 1508 1503 1501 1493 1483 1482 1480 1483 1483 1476 1476 1476 1476 1476 1478 1474 1473 1472 1471 1470 1469 1468 1466 1464 1462 1460 1457 1455 1452 1449 1446 1443 1440 1438 1435 1431 1428 1425 1423 1421 1419 1418
1507 1508 1507 1503 1499 1489 1483 1482 1482 1487 1480 1475 1474 1474 1474 1474 1474 1472 1470 1469 1468 1467 1466 1464 1462 1460 1458 1456 1454 1451 1448 1446 1443 1440 1437 1434 1431 1428 1425 1422 1420 1418 1416 1414
1499 1502 1502 1500 1498 1490 1481 1481 1483 1479 1475 1474 1473 1472 1472 1471 1470 1469 1467 1466 1465 1463 1462 1460 1458 1456 1455 1453 1450 1447 1445 1442 1439 1436 1433 1430 1427 1425 1422 1419 1416 1414 1412 1409
1492 1491 1489 1490 1485 1478 1476 1476 1475 1475 1473 1472 1471 1470 1469 1467 1466 1465 1464 1463 1461 1460 1458 1457 1455 1453 1451 1449 1447 1444 1441 1439 1436 1433 1429 1426 1424 1421 1418 1415 1413 1410 1408 1406
1486 1484 1484 1483 1477 1474 1474 1473 1473 1472 1471 1470 1469 1467 1466 1464 1463 1462 1460 1459 1458 1456 1455 1453 1452 1449 1447 1446 1444 1441 1438 1435 1432 1429 1426 1423 1420 1417 1415 1412 1410 1407 1405 1403
1482 1483 1482 1480 1475 1472 1470 1470 1470 1469 1467 1466 1465 1464 1463 1461 1460 1458 1457 1456 1454 1453 1452 1450 1448 1446 1444 1442 1439 1437 1434 1432 1429 1425 1422 1419 1417 1414 1411 1409 1407 1404 1402 1401
1478 1480 1480 1475 1471 1471 1468 1467 1467 1465 1464 1463 1461 1460 1459 1458 1456 1455 1454 1453 1452 1450 1448 1447 1445 1443 1440 1438 1436 1433 1431 1428 1425 1422 1419 1416 1414 1411 1409 1406 1403 1401 1400 1398